THOR ABLESTAR DEB, 119

Orbit data source: Space-Track

THOR ABLESTAR DEB, 119 is space debris in LEO originally from a launch on Thu, 29 Jun 1961 UTC launched from the Air Force Eastern Test Range (AFETR). Debris objects in space refer to the collection of defunct objects orbiting the Earth. Examples of debris include non-operational satellites, rocket bodies, and fragments generated from explosions, collisions, or faulty payload assembly.

Loading next visibility...
Identifier
119, 1961-015D
Orbit
LEO
Country
Flag of USUS
Related business
Manufacturer
Unknown
Mission
Spacecraft
Bus & Motor
Unknown
Mass
Unknown
Launch date (UTC)
1961-06-29 (65 years ago)
Launch vehicle
Unknown
Launch site
Air Force Eastern Test Range (AFETR)
Object type
Payload
Rocket body
Debris
Shape & HBR
Unknown shape, 0.2 m
Radar Cross Section
Medium (>0.1 m² and <1 m²)

Expand to show TLE details & history
Last TLE update: 7 hours ago

TLE from 7 hours ago
0 THOR ABLESTAR DEB
1   119U 61015D   26063.05106015  .00000702  00000-0  30365-3 0  9998
2   119  66.7268 302.0895 0104038 332.7145  26.8507 14.27199956343311
Epoch: 2026-03-04T01:13Z
TLE epoch observation values (Epoch: 2026-03-04T01:13:31.596Z)
Latitude
-0.00012°
Longitude
121.88647°
Altitude
736.727 km
Speed
7.522 km/s
True Right ascension
20h 08m 21s
True Declination
0° 00' 00"
Sunlit
Object was in daylight at epoch
Visualization orbit readout
Latitude
Unknown
Longitude
Unknown
Altitude
Unknown
Speed
Unknown
Apparent Right ascension
Unknown
Apparent Declination
Unknown
Sunlit
N/A
Visualization observer readout
Local Sidereal Time
11:47:57
Azimuth
Unknown
Elevation
Unknown
Doppler factor
Unknown
Orbital elements
Apogee altitude
874.154 km
Perigee altitude
724.805 km
Semi-major axis
7,177.616 km
Eccentricity
0.0104
Inclination
66.7268°
RAAN
302.0895°
Arg. of periapsis
332.7145°
True anomaly
27.39548°
Mean anomaly
26.8507°
Eccentric anomaly
27.12246°
Mean motion
3.56922 °/min
Orbital period
100.86 mins
BSTAR
0.00030365
Loading maneuver chart data...
Computing Atmospheric mass density...

Documentation

Showing up to 5 results
|